Weather History for Denver Centennial, CO

Change the Weather History Date:

Sunday, July 1, 2012

  Actual Average Record
Temperature  
Mean Temperature 80 °F -  
Max Temperature 95 °F 85 °F 98 °F (2001)
Min Temperature 64 °F 54 °F 50 °F (2004)
Cooling Degree Days 15    
Month to date cooling degree days 15  
Growing Degree Days 32 (Base 50)    
Moisture  
Dew Point 40 °F    
Average Humidity 28    
Maximum Humidity 45    
Minimum Humidity 10    
Precipitation  
Precipitation 0.02 in - - ()
Month to date precipitation 0.02  
Year to date precipitation 7.43  
Sea Level Pressure  
Sea Level Pressure 29.79 in    
Wind  
Wind Speed 11 mph (SSE)    
Max Wind Speed 35 mph    
Max Gust Speed 44 mph    
Visibility 10 miles    
Events Rain , Thunderstorm    
Averages and records for this station are not official NWS values.
T = Trace of Precipitation, MM = Missing Value Source: NWS Daily Summary

Daily Weather History Graph

Daily Weather History Graph

Search for Another Location

Airport:

Trip Planner

Search our weather history database for the weather conditions in past years. The results will help you decide how hot, cold, wet, or windy it might be!

Date:

Astronomy

Jul. 01, 2012 Rise Set
Actual Time 5:35 AM MDT 8:30 PM MDT
Civil Twilight 5:03 AM MDT 9:02 PM MDT
Nautical Twilight 4:22 AM MDT 9:43 PM MDT
Astronomical Twilight 3:35 AM MDT 10:30 PM MDT
Moon 6:36 PM MDT (7/1) 3:25 AM MDT (7/1)
Length of Visible Light 15h 59m
Length of Day
14h 54m
Waxing Gibbous, 94% of the Moon is Illuminated
Jul 1
Waxing Gibbous
Jul 3
Full
Jul 10
Last Quarter
Jul 18
New
Jul 26
First Quarter

Hourly Weather History & Observations

Time (MDT) Temp. Dew Point Humidity Pressure Visibility Wind Dir Wind Speed Gust Speed Precip Events Conditions
12:53 AM 75.0 °F 39.0 °F 27% 29.81 in 10.0 mi South 6.9 mph - N/A   Partly Cloudy
1:53 AM 72.0 °F 39.0 °F 30% 29.82 in 10.0 mi ESE 12.7 mph - N/A   Partly Cloudy
2:53 AM 71.1 °F 43.0 °F 36% 29.81 in 10.0 mi South 12.7 mph - N/A   Partly Cloudy
3:53 AM 70.0 °F 44.1 °F 39% 29.81 in 10.0 mi South 16.1 mph 24.2 mph N/A   Partly Cloudy
4:53 AM 69.1 °F 46.0 °F 44% 29.81 in 10.0 mi South 12.7 mph - N/A   Scattered Clouds
6:53 AM 70.0 °F 44.1 °F 39% 29.83 in 10.0 mi WSW 5.8 mph - N/A   Scattered Clouds
7:53 AM 73.9 °F 46.9 °F 38% 29.83 in 10.0 mi Calm Calm - N/A   Partly Cloudy
9:53 AM 86.0 °F 39.9 °F 20% 29.78 in 10.0 mi SW 6.9 mph - N/A   Partly Cloudy
10:53 AM 91.0 °F 37.0 °F 15% 29.76 in 10.0 mi NE 4.6 mph - N/A   Partly Cloudy
12:04 PM 89.6 °F 37.4 °F 16% 30.04 in 10.0 mi NW 17.3 mph 25.3 mph 0.00 in Rain , Thunderstorm Light Thunderstorms and Rain
12:45 PM 84.2 °F 37.4 °F 19% 30.05 in 10.0 mi East 13.8 mph 29.9 mph 0.02 in   Mostly Cloudy
12:53 PM 87.1 °F 32.0 °F 14% 29.77 in 10.0 mi Variable 3.5 mph - 0.02 in   Mostly Cloudy
1:53 PM 93.0 °F 34.0 °F 12% 29.75 in 10.0 mi ESE 9.2 mph - N/A   Partly Cloudy
2:12 PM 93.2 °F 35.6 °F 13% 30.03 in 10.0 mi SE 11.5 mph - N/A   Partly Cloudy
2:53 PM 93.0 °F 32.0 °F 12% 29.73 in 10.0 mi Variable 6.9 mph - N/A   Partly Cloudy
3:53 PM 95.0 °F 30.9 °F 10% 29.70 in 10.0 mi SE 9.2 mph - N/A   Partly Cloudy
4:53 PM 93.9 °F 30.9 °F 11% 29.69 in 10.0 mi South 6.9 mph - N/A   Partly Cloudy
5:53 PM 93.0 °F 30.9 °F 11% 29.68 in 10.0 mi Variable 5.8 mph - N/A   Scattered Clouds
6:53 PM 89.1 °F 39.0 °F 17% 29.67 in 10.0 mi SE 18.4 mph 24.2 mph N/A   Scattered Clouds
7:53 PM 84.9 °F 44.1 °F 24% 29.70 in 10.0 mi ESE 19.6 mph 27.6 mph N/A   Scattered Clouds
8:53 PM 78.1 °F 46.9 °F 33% 29.74 in 10.0 mi SSE 28.8 mph 36.8 mph N/A   Partly Cloudy
9:53 PM 75.9 °F 48.0 °F 37% 29.75 in 10.0 mi South 26.5 mph 38.0 mph N/A   Partly Cloudy
10:53 PM 73.9 °F 48.9 °F 41% 29.75 in 10.0 mi SSE 19.6 mph 31.1 mph N/A   Partly Cloudy
11:53 PM 73.9 °F 48.9 °F 41% 29.75 in 10.0 mi South 28.8 mph 36.8 mph N/A   Partly Cloudy